GFSSGP_con_sbcape_132.txt.gz
CAPE
28 129 48 156 33 3 14 33 15 7 5 48 74 87 208 438 70 0 95 605 1222 1463 1703 1896 2415 2085 2020 2173 2216 2202 2200 1877 1968 1912 1875 1877 1778 1653 1673 1472 1346 1406 1494 1564 1644 1777 1774 1806 1570
0 0 155 62 25 30 63 6 20 24 21 22 198 305 383 388 521 278 611 1145 1430 1443 1548 1790 2425 2259 2150 2151 2148 2149 2022 2065 2142 2026 1935 1961 1955 1885 1836 1721 1497 1444 1271 1581 1578 1599 1665 1686 1848
0 36 57 45 60 51 3 11 38 23 23 169 272 403 536 415 285 506 887 1358 1469 1553 1692 1869 2158 2370 2275 2197 2124 2198 2190 2216 2172 2100 2217 2032 1906 1660 1851 1759 1470 1500 1641 1785 1716 1718 1923 1844 2221
42 66 68 41 99 109 135 4 27 53 111 185 205 344 456 359 494 863 1336 1417 1489 1603 1715 2136 2095 2273 2376 2356 2197 2230 2231 1987 2175 2234 2196 2133 1847 1846 1932 1885 2160 1783 1901 1793 1721 1629 1703 1736 2133
58 111 0 22 57 116 193 18 48 107 120 165 173 264 349 597 822 1126 1257 1385 1402 1459 1923 2210 2496 2394 2402 2343 2221 2049 2124 2004 2027 2156 1945 2035 1923 1969 2075 1984 1646 1452 1547 1586 1769 1800 2014 2033 1976
80 146 8 38 66 147 208 82 136 132 133 139 168 255 390 628 735 986 1183 1293 1410 1677 2105 2128 2337 2374 2549 2361 2303 1750 2056 2113 2349 2223 2049 2027 2237 1979 1793 1502 1430 1280 1354 1562 1687 1583 1558 2166 1981
130 72 32 49 109 136 223 146 113 90 69 92 180 90 444 488 776 870 1066 1162 1309 1392 1498 1587 1800 2193 2416 2352 2506 2396 2389 2362 2507 2422 2356 2288 2281 2095 1933 1704 1355 1123 1178 1363 1354 1230 1284 1707 1907
216 62 14 18 99 99 115 119 192 110 167 87 84 63 161 363 607 637 597 647 846 1013 1101 1087 1260 1720 1865 1956 2335 2466 2315 2349 2424 2409 2451 2338 2214 2180 2152 2225 2269 1474 1210 1363 1411 1479 1564 1742 2331
184 75 8 25 41 107 167 89 123 192 148 128 200 101 184 209 408 505 578 643 831 1037 969 730 1135 1366 1521 1645 2140 2534 2558 2372 2251 2312 2781 1705 1194 1411 1646 2342 2342 1709 1602 1526 1525 1529 1851 1762 1936
24 48 27 7 32 79 106 199 130 149 193 130 135 122 126 181 400 496 492 546 746 1120 1027 765 946 1241 1479 1883 1486 1715 1919 1339 1468 1319 1106 981 896 1753 1759 1329 2140 2178 2269 2330 2454 2430 2550 1898 1338
4 96 77 36 64 55 107 171 99 168 153 85 84 74 81 119 230 255 283 471 626 920 1060 748 874 1014 1267 1378 1264 1340 1520 1520 1239 1155 1023 945 804 873 440 183 782 635 1312 1260 1217 1136 1718 1655 1019
162 224 34 145 37 113 162 175 69 115 210 113 110 67 79 134 237 361 466 489 478 724 947 739 756 888 987 1120 1134 1078 1333 1205 1066 1087 895 762 530 388 342 474 272 139 556 717 682 890 1089 1246 1322
101 248 89 279 36 120 210 193 126 77 184 163 114 81 78 126 214 356 357 418 474 533 643 719 635 735 849 1038 887 863 942 975 985 987 722 705 590 290 380 40 6 195 252 296 720 395 577 441 82
377 202 94 90 96 68 77 140 82 77 162 172 120 58 51 86 32 125 209 328 358 410 524 565 566 518 616 778 747 766 620 658 787 856 653 498 85 218 347 302 225 366 642 856 520 452 387 335 99
172 174 118 34 64 117 158 167 61 128 160 195 144 98 110 89 18 91 205 265 282 278 384 427 454 408 448 589 589 557 493 561 498 548 518 738 718 98 39 165 643 1102 1049 1234 530 443 436 617 452
244 82 56 45 111 59 54 79 118 158 167 175 164 214 171 120 49 42 143 192 130 182 307 301 620 458 366 432 422 416 407 269 52 141 632 778 466 13 92 497 749 587 880 925 911 795 288 379 559
0 60 69 68 98 58 35 0 66 127 139 145 143 163 169 119 68 31 159 116 85 177 259 303 394 324 297 252 327 277 222 10 79 395 555 558 372 70 376 673 204 228 1037 1533 1171 340 396 391 578
0 53 96 83 90 69 16 0 102 104 124 125 120 154 59 98 109 65 99 15 130 185 261 292 257 179 119 53 109 117 20 0 190 556 633 549 705 447 311 248 13 364 1032 1477 1439 1443 46 278 429
0 57 102 158 58 24 27 45 85 70 109 70 72 12 3 77 100 84 56 39 170 186 247 229 153 187 250 158 118 145 177 58 147 479 642 14 114 36 415 0 83 722 912 1485 1698 1454 171 579 601
0 66 119 80 44 30 44 31 48 41 74 7 40 29 14 17 13 67 40 71 138 109 164 169 125 185 186 200 113 116 189 164 204 388 509 689 97 308 620 17 276 543 992 1608 1784 1475 1328 193 84
0 43 148 75 18 8 38 0 46 57 47 2 0 15 25 27 42 46 59 72 71 55 95 174 85 194 114 203 186 198 334 403 485 439 593 595 31 643 916 735 524 170 412 1258 1768 1849 1532 488 124
8 147 80 68 0 1 55 1 3 48 7 2 0 0 2 15 36 39 50 41 68 42 68 183 66 155 67 171 235 301 298 285 334 381 360 523 563 612 735 731 360 0 239 1206 1684 1721 1732 1217 341
1 136 64 71 136 71 40 41 0 42 33 15 0 0 0 17 13 42 37 52 64 38 137 141 75 112 63 73 145 160 146 111 109 272 242 201 333 474 958 695 297 0 786 1188 1312 1615 1666 1043 1163
415 196 57 19 101 28 29 4 0 21 42 19 0 0 0 0 30 47 62 67 41 53 143 105 96 105 23 34 46 89 104 38 185 208 323 126 268 388 621 603 577 467 783 982 1368 1175 1646 1278 692
22 0 1 0 15 33 17 56 17 0 8 40 0 0 0 0 27 29 45 77 43 106 127 119 71 83 38 0 10 45 38 26 125 174 231 288 253 317 329 471 585 690 786 932 1070 1161 1215 1275 1462
3 0 0 0 25 6 83 28 1 0 0 13 9 0 0 8 23 24 32 59 80 139 130 143 59 68 29 0 28 24 25 33 80 81 108 254 316 312 225 406 636 583 647 752 917 1175 1178 1071 1243
75 41 8 87 22 25 71 18 10 0 0 0 0 0 0 0 34 34 30 54 58 112 149 131 78 38 44 1 0 17 0 16 88 161 82 147 207 261 350 286 579 559 662 542 839 1033 872 838 1109
74 15 107 51 83 58 48 6 6 7 17 9 0 0 0 0 9 40 63 47 55 75 134 95 77 48 58 44 16 5 0 41 81 110 164 178 227 311 473 430 596 637 847 925 784 819 793 854 889
0 2 0 5 1 74 55 15 68 18 126 146 130 41 0 0 0 42 73 95 75 81 108 157 89 42 70 67 48 93 66 76 96 73 139 211 247 385 429 507 589 707 763 918 899 855 754 856 700
0 0 0 0 0 1 47 0 68 120 179 210 39 6 1 0 3 67 96 133 121 82 88 229 213 150 166 128 67 118 116 126 144 227 193 226 291 365 517 547 521 672 806 904 845 913 972 911 711

GFSSGP_con_sbcape_135.txt.gz
CAPE
14 244 80 280 313 228 170 50 36 1 24 0 47 170 249 501 86 182 335 582 750 886 1641 1621 2341 2000 2182 2160 2223 2145 2021 2204 2016 1974 1980 1940 1771 1488 1446 1528 1487 1561 1721 1709 1697 1747 1510 1569 1556
50 3 239 180 179 211 172 50 67 21 42 48 235 295 386 502 386 315 612 861 827 1343 1548 1644 2614 2155 2164 2121 2241 2160 2034 2202 2101 2015 2106 1988 1890 1730 1765 1621 1241 1065 1049 1263 1429 1431 1550 1548 1724
0 0 70 255 227 187 148 45 44 50 60 253 437 499 574 320 208 384 794 982 1277 1667 1760 2156 2289 2353 2272 2191 2183 2191 2242 2174 2124 2265 1998 1940 1753 1796 1773 1647 1283 1323 1284 1047 1155 1611 1816 2067 2174
38 319 216 153 157 163 89 72 35 68 207 281 310 359 394 246 238 781 977 1159 1325 1631 1689 2098 2419 2339 2319 2266 2270 2349 2193 2223 2245 2149 2065 1935 1994 1933 1827 1665 1708 1976 1629 1399 1485 1823 2022 2183 2191
169 432 112 100 111 108 38 65 37 93 197 265 263 223 205 863 927 860 1039 1208 1327 1485 1784 1974 2517 2361 2338 2176 2417 2239 2095 2158 2197 2091 2096 2014 2107 1863 1827 1594 1444 1609 1667 1745 1872 2082 1898 2003 1695
488 423 69 91 69 118 215 174 196 241 250 194 100 100 451 938 729 942 1020 1214 1210 1658 1892 1811 2072 2492 2440 2296 1846 1979 1980 2067 1826 2073 2131 1947 1780 1598 1474 1315 1307 1469 1563 1637 1456 1678 2034 2018 1721
417 150 109 93 70 75 263 265 186 193 173 146 67 96 559 555 780 990 1176 1293 1395 1733 1850 2072 1829 2302 2383 2397 2043 2180 2183 2123 2195 2226 1903 2025 2202 1841 1613 1240 1174 1312 1489 1430 1319 1485 1827 1893 1873
587 101 44 38 69 57 180 187 160 161 227 114 65 160 283 450 1020 1170 1206 1359 1561 1801 1906 2052 2248 2074 2196 2329 2488 2432 2096 2203 2149 2403 2515 2647 2100 1858 2039 2134 1886 1281 1459 1472 1389 1456 1619 2187 2122
288 132 108 70 41 65 122 155 213 199 7 125 272 117 193 609 863 916 1205 1326 1796 1714 1588 1553 1929 2147 2084 2432 2544 2172 2383 2310 2439 2548 2503 2073 1791 1905 1648 1889 2017 1567 1484 1434 1461 1541 1957 1943 2035
130 187 39 66 43 96 147 195 183 79 166 233 210 279 423 541 635 718 528 623 1294 1375 1144 1733 1804 1698 2059 2174 2832 2298 2335 2669 2714 2534 2233 1884 2467 2017 1248 1843 1815 2072 2095 1871 1984 2349 2286 1715 1665
0 94 87 93 24 90 139 184 134 55 147 163 54 215 336 444 474 322 323 725 733 818 853 1325 1800 1962 2084 2318 2397 2568 2240 1933 2066 2197 2109 1863 1711 1389 1133 1659 1567 1716 1668 1766 1645 1667 1799 1933 1662
12 309 125 118 89 110 108 222 151 51 134 67 55 165 242 284 171 188 336 323 391 1343 1281 1184 1725 2279 2229 2327 2421 2182 1818 1603 1654 2083 2142 1926 1295 1472 1776 1084 1295 1787 1770 2127 1928 1705 2144 2023 2126
5 414 300 140 108 190 98 143 139 113 228 146 183 213 224 324 293 145 24 111 374 1045 1253 1120 1743 2154 2227 2213 1974 1888 1943 1838 2060 2063 2027 1862 1635 1679 1537 1328 1269 1964 2320 1815 1830 1764 1456 1171 1287
509 362 349 175 168 158 89 149 68 111 213 192 244 269 277 330 198 285 337 427 380 610 1063 1095 1428 1850 1876 1845 1827 1857 1949 2093 2194 2133 1924 1533 1119 1484 1575 1389 1906 2548 2433 1888 1730 2028 1566 1284 1089
407 363 277 238 142 183 63 70 96 148 235 226 247 298 295 286 303 432 395 568 409 587 972 1110 1189 1490 1720 1666 1790 1870 1789 1990 2161 1894 1863 1803 2130 1468 1417 2053 2337 2259 2437 2554 1968 1869 1924 1454 1083
425 269 166 137 209 140 43 11 57 117 250 240 290 293 287 279 315 396 375 641 707 725 1091 1148 736 1030 1330 1513 1708 1701 1680 1710 1602 1686 1664 1767 1905 948 1784 1974 1979 2450 2594 2250 2188 1576 1550 1681 1655
98 149 177 191 158 43 51 78 166 110 204 213 314 328 335 339 330 329 350 535 642 761 1057 1138 1149 925 1106 1524 1489 1607 1754 1460 1283 1663 1866 1927 1245 663 1802 1568 1327 2261 2810 2982 1888 1648 1568 1773 1759
111 122 158 232 93 71 110 2 71 135 190 203 313 326 383 373 358 345 302 437 537 693 938 1127 1170 1315 1294 1289 1417 1303 1197 676 1398 1770 1769 1772 1649 1459 1804 910 2072 2543 2984 3143 2916 1675 1432 1524 1726
26 183 224 135 1 0 0 37 47 84 142 127 226 279 317 356 371 318 274 363 442 622 850 1056 1146 1300 1213 1144 1298 1225 1172 860 1099 1630 1810 1536 1190 1061 1708 559 2133 2557 3076 3393 3089 1465 2091 1702 2281
45 58 250 108 22 3 2 0 90 114 136 194 224 227 291 290 327 316 257 293 419 581 785 1013 1110 1249 1191 1115 1262 1209 1274 1030 806 1525 1749 1279 1054 1140 1723 721 1973 2471 3006 3537 2931 2566 2405 1003 1170
0 2 246 99 38 53 0 54 130 101 97 106 141 220 235 254 294 325 324 282 390 540 728 960 1089 1184 1291 1197 1153 1278 1367 1232 1059 1464 1702 1734 818 1474 2235 1646 1880 1978 2653 2942 3295 3287 3096 1398 1081
0 6 242 70 35 0 16 1 21 118 100 57 79 60 174 193 265 266 300 357 386 458 565 808 1021 1026 1177 1265 1233 1449 1085 993 835 1275 1509 1569 1033 1661 1890 2101 1673 1383 2225 3181 3095 2858 2696 2522 1755
88 312 202 114 189 48 16 2 33 106 146 46 82 46 66 169 205 242 277 333 359 334 397 657 946 1017 1031 1118 1277 1116 1173 1548 1155 1353 1593 1760 1762 1596 1822 1893 1621 741 2039 2848 2855 3106 2772 2159 2241
483 293 136 138 249 93 40 18 34 86 135 196 45 106 20 88 171 221 257 279 324 290 310 507 819 955 1040 1004 1105 1391 1337 1182 1074 1226 1358 1266 1347 1575 1868 1923 1879 1684 2012 2402 2635 2813 2988 2436 2096
573 237 177 109 119 61 32 23 79 54 54 115 105 146 71 49 129 189 244 250 309 284 320 380 674 856 895 803 891 1117 1362 1372 1322 1460 1319 1211 1099 1220 1604 2044 1954 1835 2072 2142 2509 2642 2638 2622 2597
403 37 73 125 99 56 85 90 15 27 27 28 71 116 82 32 85 184 238 271 327 328 394 408 614 829 686 727 815 975 1125 897 931 1209 971 1094 952 1000 1547 1771 1837 1923 1968 1950 2280 2271 2170 2318 2340
513 307 127 180 217 135 160 77 37 6 2 11 55 15 74 34 40 174 203 254 308 375 450 512 648 861 628 625 754 825 927 911 861 1064 1338 1077 1305 1105 1414 1384 1542 1812 1860 1952 1989 1958 2261 2169 2274
496 321 319 390 117 27 122 49 9 25 36 15 34 15 69 110 41 147 199 271 307 348 432 495 600 804 684 548 508 484 661 789 845 1024 1206 1196 1235 1257 1329 1531 1443 1613 1762 2001 2035 1817 2058 2232 1933
163 299 76 147 240 116 164 114 183 270 258 83 10 21 77 139 116 167 210 290 430 330 427 532 580 644 650 584 593 518 412 553 790 854 1003 1313 1390 1369 1444 1695 1710 1736 1691 1951 2290 2141 2002 2075 2049
0 6 32 85 18 73 207 77 287 244 235 278 175 121 79 92 106 182 234 267 302 394 443 587 603 625 630 650 778 771 735 561 556 774 941 1127 1324 1547 1618 1823 1638 1700 1777 1782 2079 1940 1460 1904 1858

GFSSGP_con_sbcape_138.txt.gz
CAPE
31 569 209 606 1109 393 111 83 99 124 137 69 120 177 449 605 447 673 622 615 727 909 1207 1610 2053 2261 2184 2229 2143 2110 2086 2012 1919 1806 1750 1701 1591 1632 1696 1728 1772 1695 1705 1615 1510 1542 1467 1784 1816
148 101 470 232 549 186 242 143 124 111 117 243 309 361 440 629 410 580 761 723 770 1091 1202 1520 2412 2477 2198 2371 2319 2290 2154 2180 2081 2070 1991 1814 1917 1837 1453 1311 1177 1135 1135 1200 1398 1431 1261 1326 1744
10 34 233 651 279 226 244 155 116 118 143 566 718 741 681 424 442 750 776 752 1085 1301 1396 2118 2253 2256 2187 2248 2277 2370 2208 2242 2071 1975 1906 1853 1971 1895 1320 1319 1431 1222 1087 1200 1186 1463 1566 1527 1891
149 704 638 285 260 362 267 164 135 151 355 535 526 543 399 400 634 762 744 948 1177 1311 1572 2157 2281 2226 2230 2413 2362 2289 2238 2244 2146 2022 1885 1988 1983 2048 1814 1866 1683 1078 869 534 1431 1748 1766 1644 2071
566 561 181 200 238 222 199 127 110 294 362 506 503 299 372 775 723 765 918 855 1044 1441 1531 2026 2448 2427 2312 2359 2301 2150 2250 2134 2098 2052 2095 2138 2124 1887 1644 1779 1663 1129 1545 1694 2027 2020 1682 1591 1887
876 505 75 91 292 228 269 177 187 333 512 371 278 251 673 596 679 786 792 788 820 1378 1495 1624 2244 2317 2326 2282 2291 1945 2138 1856 2153 2165 1923 1932 1650 1561 1660 1654 1754 1809 1762 1608 2004 1999 2080 1602 1511
581 551 204 43 220 342 452 281 319 433 400 337 165 253 573 458 602 670 765 787 1103 1133 1612 1723 1811 2371 2174 1620 2113 2272 2040 2213 2030 1969 2147 2232 1870 1527 1332 1367 1581 1623 1651 1498 1645 1893 1992 1988 1484
992 357 94 66 152 180 381 298 274 328 432 221 183 262 419 538 648 702 799 841 947 1257 1555 1907 2110 2151 1897 1888 2300 2145 2308 2180 1758 2069 2342 1822 1588 1789 1469 1860 1677 1618 1587 1360 1433 1543 2110 2135 1355
384 414 233 29 55 163 238 303 372 280 304 141 275 151 304 611 730 739 877 994 1327 986 1067 1184 1825 1862 1953 1936 1908 2212 2297 2347 2294 2092 1780 1509 1036 1215 1266 2333 1737 1554 1459 1432 1402 1893 1818 2219 1725
404 517 220 111 47 133 218 274 233 202 268 333 107 178 428 648 689 723 809 1136 1254 926 751 942 940 1549 1526 1659 2182 1959 1582 1617 1354 1664 1811 1488 1849 1722 1401 1741 2090 2153 1937 2012 2074 2431 2209 2075 1185
42 319 237 147 0 86 216 193 207 153 185 220 262 359 420 462 522 524 587 793 934 709 409 664 1080 1746 1674 1776 1492 1702 1456 1132 1800 2354 1965 2121 1558 1519 1388 1386 1477 1901 1903 1776 1880 1989 1328 1208 626
58 360 218 87 46 60 145 172 220 38 169 106 195 244 297 326 391 320 319 707 751 594 559 697 1134 1971 1821 1660 1412 1401 1365 971 1463 2169 2069 1977 1519 1843 1569 1579 1820 1958 2099 2184 1763 1743 1862 1562 1023
8 298 278 227 97 128 99 221 229 179 152 0 22 84 192 293 294 304 373 401 441 782 847 699 1238 1763 2155 1690 1357 1320 1179 995 1821 1904 1915 1692 1600 1856 1619 2115 2018 2390 1864 1798 1699 1318 1088 1142 965
365 430 465 218 144 41 62 153 186 235 34 12 29 206 382 392 352 361 244 274 407 581 784 759 1181 1598 1861 1608 1642 1496 1494 1666 1792 1798 1834 1980 1748 1961 1712 1956 2127 2059 1822 1777 1861 1428 1580 1548 1413
541 464 546 327 307 194 35 30 90 240 179 168 167 265 345 450 375 386 343 404 352 633 880 1049 1056 1200 1691 1393 1547 1687 1607 1481 1604 1499 2106 2212 2207 2093 2116 2231 2060 2184 2451 2385 2242 1722 1609 1400 1292
384 454 331 239 207 172 53 54 75 224 293 251 244 293 376 437 413 545 549 572 498 658 957 963 529 1006 1324 1453 2041 1555 1439 1412 1486 1476 1713 2006 2104 2357 2163 1908 2348 3303 2416 2032 1609 1263 1262 1463 1486
339 247 257 317 262 133 19 57 67 179 236 254 317 329 393 453 480 542 527 731 786 826 998 885 742 848 1190 1976 1911 1729 2030 1407 1461 1763 1685 2277 1636 2328 2102 1856 2807 3293 2894 2493 1682 1658 1282 1786 1597
183 265 285 524 170 138 39 77 72 97 134 170 310 329 364 397 454 538 496 660 828 941 1118 1168 1076 1094 1541 1669 1894 1580 1538 1275 1457 1663 1712 2064 1932 2078 2296 2057 3019 2886 2559 2644 2087 2200 2100 1994 2258
177 121 165 310 286 85 52 59 76 90 151 161 270 338 350 377 445 549 525 616 767 863 975 1140 1247 1401 1518 1490 1425 1269 1189 1204 1396 1564 2149 2257 1879 1821 2287 1655 2414 2625 2896 3354 3010 2331 2580 2261 2910
177 133 214 95 50 80 110 72 185 115 91 110 223 273 392 356 392 545 586 607 724 923 1020 1054 1116 1312 1325 1383 1375 1159 1339 922 1060 1649 2008 1620 1311 1626 1989 1923 2108 3290 2896 3427 2973 2794 2213 2027 2483
14 47 146 127 130 45 22 157 103 104 84 136 145 177 232 360 332 491 578 631 685 851 1027 928 1143 1369 1475 1421 1522 1902 2408 1309 1019 1596 1580 1670 1557 1629 2076 1734 2321 2514 3052 2973 3300 3442 3700 1875 1869
65 0 108 98 163 65 50 37 1 110 82 178 159 309 196 256 307 393 455 595 655 741 924 980 1328 1373 1489 1771 1520 1596 1077 750 675 1012 1119 1546 1378 1742 1906 2082 2042 2425 2288 3316 2986 3132 3143 3617 2259
56 56 156 121 169 76 125 49 134 216 189 144 150 332 264 306 283 310 411 539 549 670 771 865 1333 1451 970 1428 1384 1012 827 857 932 967 1711 1505 1897 1959 1612 2080 2021 1779 1872 2926 2934 3235 3381 2648 2451
141 254 283 302 209 120 82 95 71 235 170 191 150 213 334 218 178 216 315 447 581 594 654 687 1124 1381 1172 1512 993 1044 795 1027 735 1014 1282 1142 1039 1411 1876 1843 2072 2019 2015 2296 2406 2708 2848 3263 2981
211 357 322 241 173 142 109 158 53 40 177 224 144 158 201 266 173 152 296 443 569 591 593 555 1015 1498 1539 1369 940 1012 1130 1125 1407 1786 1327 1009 977 942 1400 2130 2100 1783 2144 2149 2388 2662 2538 2354 2493
53 185 131 104 120 101 102 106 57 10 15 168 157 240 116 283 145 155 292 469 585 621 649 572 897 1345 1379 1332 1299 1560 1206 1127 505 714 548 822 815 754 745 1873 1966 1902 2024 1910 2149 2029 1969 2027 2054
221 268 129 89 183 88 98 78 57 22 70 117 83 217 98 173 156 182 274 403 539 664 702 705 815 1294 1258 1124 1388 1498 1187 1007 1029 931 1336 851 1047 820 1093 1420 1576 1553 1872 2069 2019 1543 2034 2104 2145
574 424 256 125 142 93 154 118 56 70 163 76 52 62 241 258 171 193 323 427 460 606 700 833 906 1291 1324 881 1080 1084 1207 1402 1355 1330 1166 1054 1146 1345 1237 1621 1618 1814 1951 2003 2348 1567 1740 2078 1856
366 534 407 329 120 125 116 67 414 266 495 204 31 48 164 196 218 183 308 399 560 573 739 877 984 1183 1354 1208 901 968 1016 1029 1265 1114 1310 1469 1432 1139 1725 1775 1620 1531 1639 1978 2198 1830 1850 1923 1898
224 348 310 255 214 145 48 44 702 726 483 362 59 3 29 115 294 203 261 359 488 745 856 954 1009 1089 1217 1202 1123 1134 1109 1111 859 983 1062 1275 1644 2060 2194 1867 1493 1450 1376 1676 1827 1647 1269 1812 1898

GFSSGP_con_sbcape_141.txt.gz
CAPE
25 661 589 890 1555 1176 86 77 154 147 195 214 332 216 518 765 556 685 602 534 688 621 1052 1420 2106 1723 1681 1744 1981 1813 1790 1819 1821 1687 1585 1386 1551 1651 1605 1595 1571 1452 1210 1180 1170 1422 1348 1532 1691
242 248 358 334 1318 184 146 96 136 177 255 329 289 503 559 620 590 550 671 666 746 890 792 1090 2269 2179 1745 2097 2044 1901 1885 1820 1900 1958 1849 1783 1623 1452 1399 1361 1437 1267 1139 1281 1031 1004 1103 1393 1381
127 68 554 779 515 312 141 87 206 281 460 630 718 666 564 629 611 741 646 920 998 892 1128 2183 2230 2127 2101 2189 2038 2001 1941 1925 1902 1918 1969 1906 1510 1489 1387 1382 1381 1356 1551 1411 1158 970 869 820 1530
236 814 666 238 218 313 146 143 216 399 675 689 716 455 588 663 748 586 724 1000 845 937 1114 2230 2214 2207 2148 2174 2056 2127 2059 2032 1832 2080 1911 1922 1706 1946 1765 1386 1062 896 1507 1782 1493 1123 1208 1386 1738
721 539 121 174 239 112 176 186 288 421 550 667 457 473 694 685 578 703 835 951 929 820 946 1785 2230 2259 2192 2162 2170 2056 2114 2139 2113 2100 2065 1926 1876 1942 1686 1286 1259 1422 1980 1929 1727 1406 1877 2067 1834
1071 942 184 204 300 176 245 235 312 511 630 529 424 541 688 624 705 728 872 1094 1033 1062 931 1578 2313 2385 2393 2096 2123 2136 1967 2207 2008 2099 2046 1892 1881 1800 2090 1686 1608 1722 1795 1973 2093 2030 1272 1648 1753
806 777 202 111 338 532 414 321 411 422 350 323 404 577 546 600 609 604 612 1046 1229 1239 1121 1354 1702 2212 2103 2108 2273 2046 2092 2122 2142 2121 1918 2156 1904 1654 1952 1805 1753 1622 1615 1799 1952 2056 2002 1395 1236
1164 779 328 102 363 539 457 425 443 309 357 232 353 539 444 550 522 612 594 823 1160 1378 1622 1543 2027 1084 1183 1948 2156 2282 2087 1993 2364 1947 1574 1930 1922 1384 1592 2356 1826 1648 1471 1576 1444 1954 2149 1487 1369
533 775 471 44 134 504 518 508 473 398 379 273 417 299 368 404 505 583 701 712 852 1071 1537 1451 1316 1719 2049 1851 2133 2170 2183 2019 1736 1519 1694 1905 1474 1801 1851 2417 1756 1550 1433 1362 1551 1665 2338 1800 1714
629 684 288 120 93 357 346 325 198 226 190 273 307 271 389 445 535 595 712 791 733 664 912 1300 1208 1082 1579 1163 1677 1383 2093 1240 1060 1403 1393 1404 1813 1857 1209 1788 2045 1860 1736 1726 2036 2389 2406 2241 1398
452 551 402 220 30 173 261 230 264 199 235 208 234 380 442 505 549 548 659 699 762 651 467 511 1722 2013 1503 2151 1470 1208 747 998 1759 2115 2327 1692 1636 1627 953 1348 1808 2162 2278 2069 2269 2307 2513 1412 672
426 498 431 176 58 37 215 235 87 149 192 147 305 374 400 398 410 441 525 757 775 397 439 681 1290 2385 2345 1487 1654 1460 562 793 1730 1875 2176 2095 1876 1267 1997 1289 897 2395 1222 1671 1297 1464 1594 924 493
499 561 411 144 40 113 104 387 250 180 47 182 250 274 278 265 260 286 388 733 640 498 514 705 1057 2082 1893 2081 1697 1749 571 1214 945 1406 2046 1654 1389 1958 2278 2231 1914 1865 1571 1300 1212 1282 1074 643 642
348 549 398 380 283 42 134 198 343 139 42 160 167 156 160 207 201 266 374 562 670 513 587 803 972 2237 1705 2449 1518 1158 865 1431 1924 1200 1505 2200 1501 2478 1562 1421 1940 2434 1446 1559 1314 1463 1295 1436 1032
471 314 490 362 330 96 20 48 150 189 60 56 78 161 236 220 245 352 357 410 554 486 650 792 1026 1283 1551 1431 1282 1872 763 1415 1474 1285 1889 2077 1896 2135 2973 1360 3039 2015 1722 1988 1568 1442 1372 1149 1184
241 298 472 611 374 212 14 20 79 101 155 81 82 166 286 429 302 343 256 426 482 590 692 878 718 886 1328 1189 1751 1877 1630 1770 2227 1150 1353 1996 2092 2214 2879 2790 2019 1821 1976 1410 1215 1119 1190 1177 1224
55 286 267 626 490 113 24 56 56 229 361 135 114 241 153 299 304 452 462 480 453 843 838 797 710 807 942 1423 1578 2594 1953 1652 1984 1691 1686 1990 1728 2219 2912 1825 2275 4218 2090 1371 1101 1009 1292 1497 1167
0 215 329 589 278 92 52 57 77 70 234 215 178 157 200 237 371 348 480 702 510 697 937 880 774 1130 1235 1678 2797 2145 1036 2265 1770 1870 1701 1915 1876 2118 3559 1967 2730 3188 2134 1499 1351 1622 2007 1685 1604
19 128 181 376 307 159 23 54 86 106 125 165 147 203 132 186 374 290 333 612 619 943 1104 1702 1860 1551 1411 1365 1345 1412 1004 1942 2179 2158 1897 2128 1876 2187 2618 1873 2425 2964 2980 3346 2572 2275 2753 1452 1987
25 115 121 115 320 250 192 141 69 65 96 117 157 71 169 191 246 281 430 409 552 1062 1255 1772 1655 1507 1460 1136 2383 1899 1935 980 1563 2131 1896 1769 1647 1874 2100 2861 2473 2187 2697 3339 2749 3165 2360 1178 1617
1 83 79 155 131 116 136 186 94 79 92 87 91 117 129 135 314 318 387 472 592 882 1150 1313 1449 1521 1550 2286 1774 2350 2300 2071 1216 2196 1782 1700 1532 1521 2112 1923 2965 2966 2598 2791 3422 3305 3049 2596 1719
48 16 12 59 111 106 112 129 220 151 102 61 59 55 202 466 161 296 349 320 496 735 801 1130 1419 1502 1382 1921 2085 1679 1304 1552 1167 1410 1824 1833 1595 1691 1742 1963 1923 3071 2262 4136 2926 2866 3829 3905 2715
85 73 39 123 112 163 119 72 101 273 143 65 61 127 81 82 91 195 195 502 401 638 738 816 1607 1546 1431 1596 1764 1830 2021 1573 928 1574 2600 2288 2060 1867 1589 1950 2045 1973 2121 2843 3255 3455 4080 3228 3190
0 23 133 137 152 143 86 34 192 466 239 68 98 145 150 62 157 192 168 437 423 535 586 669 1281 1509 1401 1376 1391 2026 2207 1253 902 1708 1511 1240 1630 1604 1733 1695 2177 2016 2301 2125 2471 2809 3018 3651 3538
0 72 174 136 166 127 99 12 39 142 127 239 152 190 221 278 130 42 203 327 599 600 687 684 1393 1917 1480 1346 1072 1206 1657 1790 1083 1278 1109 1721 871 858 2474 1809 2099 1908 2071 2095 2273 2671 2858 2526 3031
0 88 135 71 106 106 118 116 73 35 101 161 122 90 206 171 117 110 247 245 528 702 637 659 1237 1843 1679 1377 1555 1750 1341 1024 1089 1413 919 739 1024 770 3345 1947 1584 1593 1713 1848 1880 1907 1909 2851 2150
61 2 53 53 137 170 144 91 110 45 147 157 116 160 176 179 243 74 96 132 400 759 735 737 1160 1648 1593 1274 2022 1346 1355 1299 1368 2371 1733 996 1926 1667 1317 1092 1429 1550 1724 1888 2030 1765 2067 1704 2290
27 155 101 106 224 194 33 103 87 92 171 147 62 73 281 328 272 121 204 477 448 451 582 747 990 1559 1525 1227 1314 1308 1230 1283 1423 1707 1545 1909 2328 1014 1746 1668 1146 1305 1558 1801 2354 2370 2557 2036 1750
56 30 270 227 207 211 195 74 141 170 341 232 42 41 72 346 174 268 227 293 877 590 832 715 982 1376 1440 1308 1310 1564 1318 1271 1292 1146 1247 1306 1581 1669 1464 1830 1612 1716 1589 1776 2351 2598 2359 2214 1924
48 74 327 291 433 145 38 58 727 659 537 324 86 59 148 404 232 177 244 272 312 992 1139 857 988 1193 1403 1294 1507 1220 1286 1321 1190 1297 1247 1323 1928 1891 1848 1961 1985 1513 1673 1827 1956 1825 1369 1578 1812